[[{"header":{"parameterUnit":"m.s-1","parameterCategory":1,"la1":30.2991,"la2":30.254,"lo1":-89.0895,"lo2":-89.0444,"dy":0.0017,"dx":0.0017,"nx":28,"ny":28,"refTime":"2025-11-26T09:00:00:Z","depth":0,"parameterNumber":2,"parameterNumberName":"U-component_of_WINDS"},"data":[0,0,0,0,0,0,0,0,0,0,0,0,0,0,0,0,0,0,0,0,0,0,0,0,0,0,0,0,0,0,0,0,0,0,0,0,0,0,0,0,0,0,0,0,0,0,0,0,0,0,0,0,0,0,0,0,0,0,-1.2043,-1.2044,0,-1.2126,-1.2127,-1.2128,-1.2085,-1.2083,-1.2081,-1.2079,-1.2167,-1.2171,-1.2176,0,0,0,0,0,0,0,0,0,0,0,0,0,-1.1848,-1.1852,-1.2043,-1.2044,-1.2045,-1.2126,-1.2127,-1.2129,-1.2086,-1.2083,-1.208,-1.2078,-1.2166,-1.2171,-1.2176,0,0,0,0,0,0,0,0,0,0,0,0,0,-1.1932,-1.1853,-1.2043,-1.2033,-1.2033,-1.2126,-1.2127,-1.2129,-1.2086,-1.2083,-1.208,-1.2077,-1.2164,-1.217,-1.2177,-1.2284,0,0,-1.2197,-1.22,0,0,0,0,0,0,0,0,-1.1927,-1.1939,-1.2034,-1.2034,-1.2034,-1.2092,-1.2091,-1.2181,-1.2087,-1.2066,-1.2079,-1.2075,-1.2145,-1.2153,-1.2176,-1.2289,-1.2292,-1.2198,-1.2202,-1.2205,-1.2206,0,0,0,0,0,0,0,-1.1922,-1.1936,-1.2076,-1.2035,-1.2035,-1.2025,-1.2034,-1.2108,-1.2123,-1.2068,-1.2065,-1.2075,-1.2145,-1.217,-1.2178,-1.2294,-1.2198,-1.2203,-1.2207,-1.221,-1.2499,-1.2502,0,0,0,0,0,0,-1.1916,-1.1931,-1.2073,-1.2078,-1.1971,-1.2032,-1.2041,-1.2077,-1.2122,-1.2126,-1.2078,-1.2073,-1.216,-1.217,-1.2181,-1.2311,-1.2205,-1.2211,-1.2215,-1.2495,-1.25,-1.2504,0,0,0,0,0,0,-1.1912,-1.1929,-1.207,-1.2004,-1.2021,-1.2039,-1.2079,-1.208,-1.2105,-1.213,-1.2133,-1.2101,-1.2158,-1.2171,-1.2259,-1.2313,-1.2214,-1.222,-1.2491,-1.2496,-1.2502,-1.257,0,0,0,0,0,0,-1.1906,-1.1928,-1.1969,-1.2005,-1.2025,-1.2147,-1.2083,-1.2084,-1.2117,-1.2111,-1.2152,-1.2156,-1.2156,-1.2249,-1.2265,-1.232,-1.2225,-1.2486,-1.2493,-1.25,-1.2564,-1.2578,-1.259,0,0,0,0,0,-1.19,-1.1985,-1.1971,-1.1988,-1.2076,-1.215,-1.2161,-1.2159,-1.2121,-1.2163,-1.2178,-1.2155,-1.2304,-1.2258,-1.2276,-1.2334,-1.2483,-1.2491,-1.2499,-1.2558,-1.2575,-1.2589,0,0,0,0,0,0,-1.1956,-1.199,-1.1975,-1.2074,-1.2109,-1.2142,-1.2195,-1.2177,-1.2224,-1.2217,-1.2213,-1.2223,-1.2314,-1.2332,-1.2281,-1.244,-1.2387,-1.24,-1.2426,-1.2442,-1.2455,-1.245,-1.223,0,0,0,0,0,-1.198,-1.2036,-1.2063,-1.2148,-1.2166,-1.2177,-1.2209,-1.2205,-1.2241,-1.2256,-1.2278,-1.2315,-1.237,-1.2407,-1.2459,-1.2565,-1.2574,-1.2613,-1.2626,-1.2637,-1.2649,-1.2707,-1.2725,-1.2531,-1.2531,-1.2531,0,0,-1.203,-1.2055,-1.2091,-1.216,-1.2187,-1.2246,-1.219,-1.2255,-1.23,-1.2266,-1.235,-1.2368,-1.2408,-1.2506,-1.255,-1.2524,-1.2704,-1.2648,-1.2656,-1.2662,-1.2717,-1.2736,-1.2752,-1.2536,-1.2535,-1.2535,0,0,-1.2152,-1.2176,-1.2251,-1.2278,-1.2318,-1.2325,-1.2343,-1.2378,-1.2388,-1.2472,-1.2448,-1.2501,-1.2596,-1.2626,-1.2654,-1.2786,-1.2766,-1.2803,-1.2873,-1.2929,-1.2945,-1.2958,-1.3007,-1.3024,-1.2813,-1.2814,-1.2814,0,-1.221,-1.2298,-1.2291,-1.2358,-1.2389,-1.236,-1.2436,-1.2463,-1.2519,-1.2541,-1.2511,-1.2629,-1.2654,-1.2759,-1.2791,-1.2814,-1.2835,-1.2799,-1.2943,-1.2956,-1.2969,-1.3015,-1.3034,-1.2818,-1.2817,-1.2817,-1.2817,0,-1.2367,-1.2429,-1.2484,-1.2538,-1.2574,-1.2645,-1.265,-1.2689,-1.268,-1.269,-1.2776,-1.2805,-1.2862,-1.2886,-1.2879,-1.299,-1.2973,-1.2943,-1.289,-1.2992,-1.3036,-1.3053,-1.2824,-1.2823,-1.2821,-1.282,0,0,-1.253,-1.2578,-1.2599,-1.2623,-1.2665,-1.2712,-1.2781,-1.2837,-1.287,-1.2909,-1.2968,-1.3048,-1.302,-1.3052,-1.3047,-1.3097,-1.3201,-1.3061,-1.3062,-1.3088,-1.3327,-1.3351,-1.3371,-1.3187,-1.319,-1.3193,-1.3324,0,-1.2657,-1.2778,-1.2774,-1.2887,-1.2944,-1.2916,-1.2976,-1.3009,-1.3019,-1.3069,-1.3081,-1.3139,-1.3097,-1.3116,-1.3163,-1.3178,-1.325,-1.3168,-1.3244,-1.3246,-1.3237,-1.3394,-1.342,-1.3542,-1.3341,-1.3344,-1.3346,0,-1.2821,-1.2865,-1.2984,-1.3017,-1.3041,-1.3095,-1.3146,-1.3193,-1.3229,-1.3233,-1.3268,-1.3255,-1.3326,-1.3269,-1.3367,-1.3312,-1.3342,-1.3354,-1.3358,-1.3367,-1.3304,-1.3409,-1.3581,-1.36,-1.3372,-1.337,-1.3368,0,-1.2931,-1.3019,-1.3102,-1.3123,-1.3163,-1.3202,-1.3221,-1.3253,-1.3287,-1.333,-1.3352,-1.3404,-1.3433,-1.3473,-1.3475,-1.3433,-1.3574,-1.3517,-1.3581,-1.3581,-1.3614,-1.3613,-1.3796,-1.363,-1.3629,-1.3629,-1.3629,0,-1.3074,-1.3149,-1.3151,-1.3203,-1.3285,-1.3278,-1.336,-1.3375,-1.3404,-1.3458,-1.3436,-1.3488,-1.3485,-1.3537,-1.3538,-1.362,-1.3633,-1.3639,-1.3639,-1.3643,-1.3642,-1.3664,-1.3657,-1.3634,-1.3633,-1.3632,-1.3631,0,-1.3211,-1.3216,-1.3304,-1.3334,-1.3344,-1.3403,-1.3429,-1.3478,-1.3486,-1.3554,-1.357,-1.3583,-1.3643,-1.3647,-1.3717,-1.3717,-1.3817,-1.3806,-1.3805,-1.3804,-1.3869,-1.3863,-1.4074,-1.4102,-1.3916,-1.3918,-1.3919,0,-1.3304,-1.336,-1.3396,-1.343,-1.3451,-1.3506,-1.354,-1.3535,-1.3571,-1.3616,-1.366,-1.3717,-1.3763,-1.3861,-1.3876,-1.3929,-1.3921,-1.3991,-1.3929,-1.3931,-1.3925,-1.3923,-1.3929,-1.4004,-1.4007,-1.4008,-1.401,0,-1.3468,-1.3467,-1.3516,-1.3567,-1.3607,-1.3646,-1.3683,-1.3712,-1.3712,-1.3754,-1.3814,-1.385,-1.392,-1.3978,-1.403,-1.4049,-1.4031,-1.4028,-1.4046,-1.4052,-1.405,-1.4054,-1.3841,-1.4024,-1.4023,-1.4022,-1.4021,-1.402,-1.3588,-1.3637,-1.3669,-1.3725,-1.3751,-1.3786,-1.3833,-1.3846,-1.3896,-1.3953,-1.3947,-1.4014,-1.4048,-1.4115,-1.4139,-1.4192,-1.4168,-1.4194,-1.4201,-1.4208,-1.4216,-1.4039,-1.4201,-1.4201,-1.42,-1.42,-1.4199,0,-1.3752,-1.3772,-1.3822,-1.3874,-1.3918,-1.3893,-1.3932,-1.3971,-1.4031,-1.4063,-1.4109,-1.4178,-1.4234,-1.4253,-1.4307,-1.4346,-1.4339,-1.4361,-1.4359,-1.4364,-1.4233,-1.4213,-1.4366,-1.4366,-1.4366,-1.4366,-1.4366,-1.4366,-1.3844,-1.3926,-1.3929,-1.4023,-1.4042,-1.4108,-1.4132,-1.4164,-1.419,-1.4269,-1.4315,-1.4326,-1.4354,-1.4409,-1.446,-1.4464,-1.4486,-1.4512,-1.4513,-1.439,-1.4374,-1.4358,-1.4339,-1.4516,-1.4516,-1.464,-1.4641,-1.4642]},{"header":{"parameterUnit":"m.s-1","parameterCategory":1,"la1":30.2991,"la2":30.254,"lo1":-89.0895,"lo2":-89.0444,"dy":0.0017,"dx":0.0017,"nx":28,"ny":28,"refTime":"2025-11-26T09:00:00:Z","depth":0,"parameterNumber":3,"parameterNumberName":"V-component_of_WINDS"},"data":[0,0,0,0,0,0,0,0,0,0,0,0,0,0,0,0,0,0,0,0,0,0,0,0,0,0,0,0,0,0,0,0,0,0,0,0,0,0,0,0,0,0,0,0,0,0,0,0,0,0,0,0,0,0,0,0,0,0,-6.5623,-6.5625,0,-6.5749,-6.575,-6.5752,-6.5664,-6.566,-6.5657,-6.5653,-6.5775,-6.5782,-6.5789,0,0,0,0,0,0,0,0,0,0,0,0,0,-6.5302,-6.5308,-6.5623,-6.5625,-6.5626,-6.5749,-6.575,-6.5752,-6.5665,-6.566,-6.5656,-6.5651,-6.5773,-6.5781,-6.579,0,0,0,0,0,0,0,0,0,0,0,0,0,-6.5436,-6.531,-6.5623,-6.5598,-6.5597,-6.5748,-6.575,-6.5752,-6.5666,-6.566,-6.5654,-6.5649,-6.577,-6.578,-6.5791,-6.5972,0,0,-6.5822,-6.5827,0,0,0,0,0,0,0,0,-6.5428,-6.5448,-6.56,-6.56,-6.5599,-6.5685,-6.5682,-6.5826,-6.5668,-6.564,-6.5653,-6.5646,-6.575,-6.5761,-6.5798,-6.5977,-6.5983,-6.5823,-6.5829,-6.5834,-6.5837,0,0,0,0,0,0,0,-6.5419,-6.5442,-6.5673,-6.5602,-6.5602,-6.5578,-6.5591,-6.5709,-6.5726,-6.5642,-6.5636,-6.5652,-6.5748,-6.5788,-6.58,-6.5984,-6.5823,-6.5832,-6.5838,-6.5843,-6.6318,-6.6324,0,0,0,0,0,0,-6.5413,-6.5435,-6.5669,-6.5676,-6.5498,-6.5589,-6.5603,-6.5663,-6.5724,-6.5728,-6.5657,-6.5647,-6.5773,-6.5788,-6.5804,-6.6019,-6.5834,-6.5844,-6.5849,-6.6311,-6.6319,-6.6326,0,0,0,0,0,0,-6.5406,-6.5435,-6.5664,-6.5554,-6.5581,-6.5601,-6.5669,-6.5669,-6.5708,-6.5736,-6.5738,-6.5695,-6.5769,-6.5789,-6.5931,-6.6022,-6.5848,-6.5858,-6.6304,-6.6314,-6.6322,-6.6452,0,0,0,0,0,0,-6.5397,-6.5433,-6.5504,-6.5556,-6.5588,-6.5791,-6.5675,-6.5676,-6.5727,-6.5716,-6.5772,-6.5775,-6.5766,-6.5916,-6.5941,-6.6033,-6.5866,-6.6295,-6.6308,-6.6319,-6.644,-6.6465,-6.6486,0,0,0,0,0,-6.5386,-6.5534,-6.5508,-6.5536,-6.5677,-6.5797,-6.5814,-6.5802,-6.5735,-6.5805,-6.5822,-6.5774,-6.6008,-6.5931,-6.5959,-6.6055,-6.629,-6.6305,-6.6318,-6.6429,-6.646,-6.6486,0,0,0,0,0,0,-6.5489,-6.554,-6.5512,-6.5681,-6.5736,-6.5782,-6.587,-6.5835,-6.5908,-6.5894,-6.5874,-6.5887,-6.6036,-6.6059,-6.5973,-6.6233,-6.6138,-6.6159,-6.6213,-6.6242,-6.6265,-6.6256,-6.5874,0,0,0,0,0,-6.5532,-6.5627,-6.5666,-6.5811,-6.584,-6.5851,-6.5902,-6.5889,-6.5943,-6.5965,-6.5993,-6.6046,-6.6131,-6.6188,-6.6268,-6.6442,-6.6452,-6.6522,-6.6546,-6.6565,-6.6583,-6.6676,-6.6707,-6.6373,-6.6373,-6.6373,0,0,-6.5621,-6.566,-6.5721,-6.5833,-6.5874,-6.5971,-6.5871,-6.5977,-6.6049,-6.598,-6.6116,-6.6139,-6.6196,-6.6355,-6.6426,-6.6379,-6.6677,-6.6583,-6.6598,-6.6606,-6.6694,-6.6725,-6.6754,-6.6383,-6.6381,-6.638,0,0,-6.5832,-6.5872,-6.5998,-6.6041,-6.6104,-6.611,-6.614,-6.6192,-6.6204,-6.6341,-6.6291,-6.6374,-6.6522,-6.6565,-6.6606,-6.6834,-6.6791,-6.686,-6.6982,-6.7073,-6.7099,-6.7122,-6.7203,-6.7232,-6.6878,-6.6878,-6.6878,0,-6.5934,-6.6081,-6.6066,-6.6178,-6.6227,-6.6172,-6.6298,-6.6339,-6.6424,-6.6459,-6.6406,-6.659,-6.6625,-6.6792,-6.6848,-6.6883,-6.6916,-6.6854,-6.7097,-6.712,-6.7141,-6.7218,-6.7248,-6.6886,-6.6885,-6.6884,-6.6883,0,-6.6202,-6.6304,-6.6398,-6.6484,-6.6544,-6.6662,-6.6664,-6.6726,-6.6706,-6.6717,-6.6856,-6.6895,-6.6982,-6.7021,-6.7002,-6.7186,-6.7155,-6.71,-6.7004,-6.7182,-6.7253,-6.7282,-6.6897,-6.6895,-6.6892,-6.689,0,0,-6.6482,-6.6559,-6.6594,-6.6632,-6.6697,-6.6775,-6.6889,-6.6976,-6.7029,-6.7089,-6.7183,-6.731,-6.7259,-6.7306,-6.7291,-6.7371,-6.7548,-6.7306,-6.7307,-6.7349,-6.7751,-6.7792,-6.7827,-6.752,-6.7525,-6.7529,-6.7746,0,-6.6697,-6.6899,-6.689,-6.7078,-6.7171,-6.7119,-6.7218,-6.7268,-6.7281,-6.736,-6.7372,-6.7463,-6.7389,-6.7417,-6.7494,-6.751,-6.7628,-6.7494,-6.7605,-6.761,-6.7593,-6.7864,-6.7908,-6.8111,-6.7774,-6.7779,-6.7782,0,-6.6975,-6.7047,-6.7245,-6.7296,-6.7335,-6.7425,-6.7503,-6.758,-6.7634,-6.7637,-6.769,-6.7662,-6.7775,-6.7677,-6.7831,-6.7741,-6.7785,-6.78,-6.7807,-6.7817,-6.7707,-6.7881,-6.8175,-6.8205,-6.7826,-6.7822,-6.7819,0,-6.7159,-6.7305,-6.7443,-6.7477,-6.7539,-6.7604,-6.7632,-6.7681,-6.7734,-6.7801,-6.7835,-6.7914,-6.7957,-6.8018,-6.8012,-6.794,-6.8169,-6.8069,-6.8173,-6.8174,-6.8224,-6.8221,-6.8529,-6.8253,-6.8253,-6.8252,-6.8251,0,-6.74,-6.7523,-6.7526,-6.7611,-6.7747,-6.7733,-6.7867,-6.7888,-6.7932,-6.8018,-6.7977,-6.8058,-6.8044,-6.8125,-6.812,-6.8248,-6.8268,-6.8272,-6.827,-6.8276,-6.8276,-6.8305,-6.8291,-6.826,-6.8258,-6.8257,-6.8255,0,-6.7629,-6.7636,-6.7782,-6.783,-6.7845,-6.7943,-6.7982,-6.8061,-6.807,-6.818,-6.8204,-6.8218,-6.8311,-6.831,-6.8415,-6.8412,-6.8569,-6.855,-6.8552,-6.8548,-6.8652,-6.8642,-6.899,-6.9034,-6.873,-6.8732,-6.8735,0,-6.7782,-6.7876,-6.7934,-6.799,-6.8024,-6.8114,-6.8168,-6.8157,-6.8214,-6.8283,-6.8353,-6.8442,-6.8513,-6.8663,-6.8681,-6.876,-6.8743,-6.8859,-6.8754,-6.8758,-6.8744,-6.8739,-6.8747,-6.888,-6.8883,-6.8886,-6.8888,0,-6.8054,-6.8052,-6.8133,-6.8215,-6.8281,-6.8345,-6.8403,-6.845,-6.8446,-6.8512,-6.8607,-6.8663,-6.877,-6.8859,-6.8936,-6.8962,-6.8925,-6.8921,-6.8949,-6.8957,-6.8954,-6.8957,-6.8608,-6.8913,-6.8911,-6.8909,-6.8907,-6.8906,-6.8249,-6.833,-6.8384,-6.8474,-6.8518,-6.8573,-6.865,-6.8669,-6.8749,-6.8838,-6.8825,-6.8932,-6.8981,-6.9081,-6.9114,-6.9195,-6.9154,-6.9195,-6.9206,-6.9216,-6.9227,-6.8942,-6.9209,-6.9208,-6.9208,-6.9207,-6.9207,0,-6.8518,-6.855,-6.8634,-6.8718,-6.8789,-6.8749,-6.8811,-6.8872,-6.8967,-6.9018,-6.9089,-6.9198,-6.9283,-6.9308,-6.939,-6.945,-6.9434,-6.9471,-6.9467,-6.9473,-6.926,-6.9227,-6.9482,-6.9482,-6.9482,-6.9482,-6.9482,-6.9482,-6.8666,-6.8801,-6.8806,-6.896,-6.8991,-6.9096,-6.9135,-6.9185,-6.9226,-6.935,-6.9421,-6.9438,-6.9477,-6.9562,-6.9637,-6.9642,-6.9674,-6.9718,-6.9716,-6.9516,-6.9488,-6.9462,-6.9431,-6.9725,-6.9726,-6.9923,-6.9925,-6.9926]}]]